Location: Amsterdam
(30.7274°N, 84.4357°W)
Time: 01:20:24
(UTC+00:00)

Courier 1B Rocket - Pass Details

Date: 15 February 2026
Orbit: 920 x 1201 km, 28.2° (Epoch: 10 March)

Event Time Altitude Azimuth Distance (km) Brightness Sun altitude
Rises 08:49:26 0° 264° (W) 3,927 - -45.3°
Reaches altitude 10° 08:53:39 10° 241° (WSW) 3,021 - -44.4°
Maximum altitude 08:57:28 15° 210° (SSW) 2,720 - -43.6°
Drops below altitude 10° 09:01:22 10° 179° (S) 3,091 - -42.8°
Exits shadow 09:04:36 - 162° (SSE) 3,774 8.1 -42.1°
Sets 09:05:47 0° 157° (SSE) 4,076 8.4 -41.9°
